TimeEST,TemperatureF,Dew PointF,Humidity,Sea Level PressureIn,VisibilityMPH,Wind Direction,Wind SpeedMPH,Gust SpeedMPH,PrecipitationIn,Events,Conditions,WindDirDegrees,DateUTC
12:14 AM,32.5,23.0,68,30.16,10.0,SSW,15.0,19.6,N/A,,Clear,210,2013-01-19 05:14:00
12:34 AM,33.3,22.5,65,30.16,10.0,SSW,15.0,21.9,N/A,,Clear,210,2013-01-19 05:34:00
12:54 AM,34.2,22.1,61,30.15,10.0,SW,16.1,21.9,N/A,,Clear,220,2013-01-19 05:54:00
1:14 AM,34.5,21.9,60,30.15,10.0,SW,19.6,24.2,N/A,,Clear,230,2013-01-19 06:14:00
1:34 AM,35.6,21.6,57,30.14,10.0,SW,19.6,28.8,N/A,,Clear,230,2013-01-19 06:34:00
1:54 AM,36.0,21.4,55,30.13,10.0,SW,23.0,26.5,N/A,,Clear,230,2013-01-19 06:54:00
2:14 AM,36.3,21.2,54,30.15,10.0,WSW,18.4,25.3,N/A,,Clear,240,2013-01-19 07:14:00
2:34 AM,36.0,21.4,55,30.14,10.0,SW,20.7,25.3,N/A,,Clear,230,2013-01-19 07:34:00
2:54 AM,35.6,21.7,57,30.14,10.0,WSW,17.3,23.0,N/A,,Clear,240,2013-01-19 07:54:00
3:14 AM,35.4,21.7,58,30.14,10.0,WSW,18.4,21.9,N/A,,Clear,240,2013-01-19 08:14:00
3:34 AM,35.2,21.7,58,30.13,10.0,SW,15.0,-,N/A,,Clear,230,2013-01-19 08:34:00
3:54 AM,35.2,21.6,58,30.13,10.0,SW,16.1,21.9,N/A,,Clear,230,2013-01-19 08:54:00
4:14 AM,35.6,21.4,56,30.12,10.0,SW,16.1,21.9,N/A,,Clear,230,2013-01-19 09:14:00
4:34 AM,35.2,21.9,58,30.12,10.0,SW,13.8,-,N/A,,Clear,230,2013-01-19 09:34:00
4:54 AM,34.9,21.9,59,30.12,10.0,SW,16.1,-,N/A,,Clear,230,2013-01-19 09:54:00
5:14 AM,35.2,21.9,58,30.12,10.0,SW,16.1,-,N/A,,Clear,230,2013-01-19 10:14:00
5:34 AM,35.6,21.9,58,30.12,10.0,SW,17.3,-,N/A,,Clear,230,2013-01-19 10:34:00
5:54 AM,36.0,22.1,57,30.12,10.0,SW,16.1,26.5,N/A,,Clear,230,2013-01-19 10:54:00
6:14 AM,36.5,21.7,55,30.11,10.0,SW,18.4,-,N/A,,Clear,230,2013-01-19 11:14:00
6:34 AM,35.8,21.9,57,30.11,10.0,SW,15.0,21.9,N/A,,Clear,230,2013-01-19 11:34:00
6:54 AM,35.6,22.1,58,30.11,10.0,SW,17.3,21.9,N/A,,Clear,230,2013-01-19 11:54:00
7:14 AM,35.6,22.1,58,30.11,10.0,SW,18.4,24.2,N/A,,Clear,230,2013-01-19 12:14:00
7:34 AM,35.6,21.9,58,30.11,10.0,SW,17.3,-,N/A,,Clear,230,2013-01-19 12:34:00
7:54 AM,35.2,22.1,59,30.11,10.0,SW,17.3,21.9,N/A,,Clear,230,2013-01-19 12:54:00
8:14 AM,35.6,22.1,58,30.12,10.0,SW,16.1,19.6,N/A,,Clear,230,2013-01-19 13:14:00
8:34 AM,36.0,22.6,58,30.11,10.0,SW,16.1,21.9,N/A,,Clear,230,2013-01-19 13:34:00
8:54 AM,37.2,22.8,56,30.12,10.0,SW,16.1,23.0,N/A,,Clear,230,2013-01-19 13:54:00
9:14 AM,38.3,23.0,54,30.12,10.0,SW,16.1,24.2,N/A,,Clear,230,2013-01-19 14:14:00
9:34 AM,39.4,23.5,53,30.12,10.0,SW,17.3,23.0,N/A,,Clear,230,2013-01-19 14:34:00
9:54 AM,40.5,23.4,51,30.11,10.0,SW,17.3,28.8,N/A,,Clear,230,2013-01-19 14:54:00
10:14 AM,41.4,23.5,49,30.12,10.0,SW,19.6,28.8,N/A,,Clear,230,2013-01-19 15:14:00
10:34 AM,42.4,23.4,47,30.11,10.0,SW,21.9,29.9,N/A,,Clear,230,2013-01-19 15:34:00
10:54 AM,43.7,24.1,46,30.10,10.0,SW,19.6,23.0,N/A,,Clear,230,2013-01-19 15:54:00
11:14 AM,44.6,24.3,45,30.09,10.0,SW,21.9,26.5,N/A,,Clear,230,2013-01-19 16:14:00
11:34 AM,45.5,24.3,43,30.08,10.0,SW,19.6,26.5,N/A,,Clear,230,2013-01-19 16:34:00
11:54 AM,45.7,23.7,42,30.06,10.0,SW,20.7,26.5,N/A,,Clear,230,2013-01-19 16:54:00
12:14 PM,46.6,24.1,41,30.04,10.0,SW,23.0,29.9,N/A,,Clear,230,2013-01-19 17:14:00
12:34 PM,46.9,24.4,41,30.03,10.0,SW,23.0,29.9,N/A,,Clear,230,2013-01-19 17:34:00
12:54 PM,47.3,25.0,42,30.01,10.0,SW,24.2,31.1,N/A,,Clear,230,2013-01-19 17:54:00
1:14 PM,47.8,25.2,41,30.00,10.0,SW,23.0,31.1,N/A,,Clear,230,2013-01-19 18:14:00
1:34 PM,48.2,24.8,40,29.99,10.0,WSW,23.0,33.4,N/A,,Clear,240,2013-01-19 18:34:00
1:54 PM,48.6,24.8,39,29.98,10.0,SW,26.5,34.5,N/A,,Clear,230,2013-01-19 18:54:00
2:14 PM,49.5,25.5,39,29.96,10.0,SW,25.3,-,N/A,,Clear,230,2013-01-19 19:14:00
2:34 PM,50.0,24.8,37,29.95,10.0,SW,24.2,33.4,N/A,,Clear,230,2013-01-19 19:34:00
2:54 PM,50.2,25.3,38,29.94,10.0,SW,23.0,27.6,N/A,,Clear,230,2013-01-19 19:54:00
3:14 PM,50.2,25.0,37,29.92,10.0,SW,18.4,31.1,N/A,,Clear,220,2013-01-19 20:14:00
3:34 PM,50.4,25.2,37,29.92,10.0,SW,23.0,28.8,N/A,,Clear,220,2013-01-19 20:34:00
3:54 PM,50.0,24.8,37,29.91,10.0,SW,23.0,32.2,N/A,,Clear,230,2013-01-19 20:54:00
4:14 PM,49.8,24.3,37,29.90,10.0,SW,21.9,32.2,N/A,,Clear,220,2013-01-19 21:14:00
4:34 PM,49.3,24.6,38,29.89,10.0,SW,19.6,27.6,N/A,,Clear,220,2013-01-19 21:34:00
4:54 PM,48.6,24.6,39,29.88,10.0,SSW,19.6,28.8,N/A,,Clear,210,2013-01-19 21:54:00
5:14 PM,47.7,24.4,40,29.88,10.0,SW,17.3,23.0,N/A,,Clear,220,2013-01-19 22:14:00
5:34 PM,46.6,25.7,44,29.87,10.0,SSW,15.0,24.2,N/A,,Clear,210,2013-01-19 22:34:00
5:54 PM,45.9,26.4,47,29.86,10.0,SW,20.7,24.2,N/A,,Clear,220,2013-01-19 22:54:00
6:14 PM,45.7,25.9,46,29.86,10.0,SW,19.6,27.6,N/A,,Clear,220,2013-01-19 23:14:00
6:34 PM,44.6,26.8,50,29.87,10.0,SW,17.3,-,N/A,,Clear,230,2013-01-19 23:34:00
6:54 PM,43.3,27.3,53,29.88,10.0,SW,15.0,-,N/A,,Clear,220,2013-01-19 23:54:00
7:14 PM,43.7,27.0,52,29.88,10.0,SW,13.8,-,N/A,,Clear,220,2013-01-20 00:14:00
7:34 PM,42.6,27.1,54,29.88,10.0,SW,12.7,-,N/A,,Clear,220,2013-01-20 00:34:00
7:54 PM,42.3,26.6,54,29.87,10.0,SW,12.7,-,N/A,,Clear,220,2013-01-20 00:54:00
8:14 PM,41.9,26.2,54,29.86,10.0,SW,13.8,-,N/A,,Clear,220,2013-01-20 01:14:00
8:34 PM,41.0,26.4,56,29.85,10.0,SW,13.8,-,N/A,,Clear,220,2013-01-20 01:34:00
8:54 PM,40.6,26.1,56,29.86,10.0,SW,12.7,17.3,N/A,,Clear,230,2013-01-20 01:54:00
9:13 PM,43.0,25.7,51,29.86,10.0,SW,16.1,20.7,N/A,,Clear,230,2013-01-20 02:13:00
9:34 PM,44.1,25.7,49,29.85,10.0,WSW,16.1,-,N/A,,Clear,240,2013-01-20 02:34:00
9:54 PM,44.1,25.9,49,29.85,10.0,WSW,18.4,24.2,N/A,,Clear,240,2013-01-20 02:54:00
10:14 PM,44.2,26.1,49,29.84,10.0,WSW,20.7,31.1,N/A,,Clear,240,2013-01-20 03:14:00
10:34 PM,44.2,26.4,50,29.83,10.0,WSW,20.7,26.5,N/A,,Clear,240,2013-01-20 03:34:00
10:54 PM,43.9,26.4,50,29.83,10.0,WSW,19.6,23.0,N/A,,Clear,240,2013-01-20 03:54:00
11:14 PM,44.2,26.4,50,29.83,10.0,WSW,19.6,28.8,N/A,,Clear,240,2013-01-20 04:14:00
11:34 PM,44.2,26.6,50,29.82,10.0,WSW,24.2,29.9,N/A,,Clear,250,2013-01-20 04:34:00
11:54 PM,44.1,27.5,52,29.82,10.0,WSW,19.6,26.5,N/A,,Clear,250,2013-01-20 04:54:00